Other Public Products
Issued by NWS Grand Forks, ND

Home | Current Version | Previous Version | Graphics & Text | Print | Product List | Glossary On
Versions: 1 2 3 4 5 6 7 8 9 10 11 12 13 14 15 16 17 18 19 20 21 22 23 24 25 26 27 28 29 30 31 32 33 34 35 36 37 38 39 40 41 42 43 44 45 46 47 48 49 50
000
FPUS83 KFGF 180410
OPUFGF
PRAIRIE TO PINES WEATHER ROUNDUP
NATIONAL WEATHER SERVICE EASTERN NORTH DAKOTA/GRAND FORKS ND
1100 PM CDT WED SEP 17 2014

 **SATELLITE DATA USED TO AUGMENT SKY COVER AT AUTOMATED STATIONS**
 *****  WEATHER ACROSS EASTERN NORTH DAKOTA  *****

CITY           SKY/WX    TMP DP  RH WIND       PRES   REMARKS
GRAND FORKS    CLEAR     48  43  82 NE6       30.05S
GRAND FORKS AF CLEAR     46  44  92 E5        30.06S
GRAND CITY NWS   N/A     46 N/A N/A E3          N/A
BUXTON         NOT AVBL
DEVILS LAKE    CLEAR     46  39  76 E9        30.02F
FARGO          CLEAR     52  48  86 NE3       30.02R
WAHPETON ARPT  CLEAR     54  46  76 NE7       30.00S
$$

 *****  WEATHER ACROSS CENTRAL AND WESTERN NORTH DAKOTA  *****

CITY           SKY/WX    TMP DP  RH WIND       PRES   REMARKS
JAMESTOWN      CLEAR     51  48  89 E7        30.01F
BISMARCK       CLEAR     54  48  80 NE6       29.99R
MINOT          CLEAR     50  46  86 E8        29.98S
MINOT AFB      CLEAR     49  48  93 SE10      29.98S
GARRISON         N/A     56  52  86 E9        29.97S
WILLISTON      CLEAR     63  45  51 SE3       29.91S
DICKINSON      CLEAR     55  47  74 SE12      29.94S
HETTINGER      CLEAR     54  48  80 E8        29.97S
$$

 *****  OTHER OBSERVATIONS NORTHEAST NORTH DAKOTA  *****

CITY           SKY/WX    TMP DP  RH WIND       PRES   REMARKS
WALHALLA       FAIR      43  43 100 CALM      30.09R
LANGDON        FAIR      43  39  87 E10       30.05F
CAVALIER       FAIR      43  41  93 E3        30.08S
GRAFTON        FAIR      43  39  87 E7        30.07S
CANDO          FAIR      45  41  87 E7        30.05R
FORT TOTTEN      N/A     49  44  84 E6        29.95
ROLLA          FAIR      41  41 100 SE7       30.05F
RUGBY          FAIR      46  45  93 E12       30.01S
 ***** THE ABOVE OBSERVATIONS ARE NON NWS ARE NOT QUALITY
        CONTROLLED AND MAY MIS-REPORT RAIN FOR SNOW...
$$

 *****  OTHER OBSERVATIONS SOUTHEAST NORTH DAKOTA *****

CITY           SKY/WX    TMP DP  RH WIND       PRES   REMARKS
COOPERSTOWN    NOT AVBL
VALLEY CITY    FAIR      54  50  87 NE9       30.03S
OAKES            N/A     54  52  94 NE10      30.01S
GWINNER        CLEAR     52  50  93 N8        30.02S
BUFFALO        NOT AVBL
WYNDMERE       NOT AVBL
 ***** THE ABOVE OBSERVATIONS ARE NON NWS ARE NOT QUALITY
       CONTROLLED AND MAY MIS-REPORT RAIN FOR SNOW...
$$

  *****  WEATHER ACROSS NORTHERN MINNESOTA  *****

CITY           SKY/WX    TMP DP  RH WIND       PRES   REMARKS
FLAG ISLAND    MOCLDY    45  37  76 E6        30.10S
WARROAD        CLEAR     45  39  81 E12       30.10S
ROSEAU         CLEAR     37  34  87 E7        30.09F
HALLOCK        CLEAR     45  39  81 E9        30.08R
THF RVR FALLS  CLEAR     45  41  87 E8        30.06S
HALSTAD          N/A     45  43  92 NE6         N/A
FOSSTON        CLEAR     46  43  87 E6        30.05S
BAUDETTE       CLEAR     38  35  89 E6        30.11R
WASKISH        CLEAR     39  37  93 CALM      30.09S
CROOKSTON      CLEAR     48  45  87 E7        30.06S
$$
  *****  WEATHER ACROSS CENTRAL AND WEST MINNESOTA  *****

CITY           SKY/WX    TMP DP  RH WIND       PRES   REMARKS
BEMIDJI        CLEAR     46  43  88 E9        30.06S
PARK RAPIDS    CLEAR     54  48  80 NE7       30.04R
WADENA         CLEAR     54  48  82 NE3       30.03R
DETROIT LAKES  CLEAR     55  50  82 CALM      30.04S
MOORHEAD       CLEAR     54  52  94 CALM      30.02S
FERGUS FALLS   CLEAR     57  50  77 E7        30.01R
ELBOW LAKE     FAIR      57  50  77 E3        30.00S
MORRIS MN      CLEAR     55  52  88 E6        29.99S
STAPLES        CLEAR     54  52  94 E6        30.03S
WHEATON        CLEAR     50  46  87 CALM      30.02R
$$
  *****  WEATHER ELSEWHERE ACROSS MINNESOTA  *****

CITY           SKY/WX    TMP DP  RH WIND       PRES   REMARKS
DULUTH         CLOUDY    45  39  79 E12       30.12R
INTRNTL FALLS  PTCLDY    31  30  96 CALM      30.11S
ELY            MOCLDY    39  37  93 S3        30.13R
CLOQUET        MOCLDY    45  39  81 E10G17    30.11S
BRAINERD       CLOUDY    47  45  93 E9        30.07R
HIBBING        CLOUDY    45  39  79 SE9       30.12R
ALEXANDRIA     CLEAR     54  52  93 E3        30.02S
SAINT CLOUD    CLEAR     54  48  80 E10G22    30.03R
MINNEAPOLIS    CLEAR     62  53  72 E5        30.01R
$$

  *****  WEATHER ACROSS SOUTH DAKOTA  *****

CITY           SKY/WX    TMP DP  RH WIND       PRES   REMARKS
SIOUX FALLS    PTCLDY    59  54  83 CALM      29.98S
BROOKINGS      NOT AVBL
WATERTOWN      CLEAR     54  49  83 CALM      30.01R
HURON          CLOUDY    60  54  80 E5        29.98S
SISSETON         N/A     51  49  92 W3        30.00R
ABERDEEN       CLEAR     50  47  89 NE8       29.99F
MITCHELL       LGT RAIN  63  57  81 E9        29.97S
PIERRE         PTCLDY    60  45  57 E5        29.93S
MOBRIDGE       CLEAR     58  48  69 E13       29.95S
RAPID CITY     CLEAR     62  51  67 CALM      29.99R
$$

  *****  SOME WEATHER IN NEARBY STATES *****

CITY           SKY/WX    TMP DP  RH WIND       PRES   REMARKS
GLASGOW MT     CLEAR     63  47  55 E15       29.80F
GREAT FALLS MT CLOUDY    67  48  50 S9        29.77F
CHEYENNE WY    CLEAR     58  41  53 W8        30.12S
SCOTTSBLUFF NE CLEAR     59  48  67 CALM      29.97R
OMAHA NE       CLEAR     67  58  72 E9        29.97R
DES MOINES IA  CLEAR     65  57  75 SE7       30.00R
DAVENPORT IA   CLEAR     51  47  86 E3        30.03R FOG
CHICAGO IL     CLEAR     61  48  62 CALM      30.03R
EAU CLAIRE WI  CLEAR     55  51  86 NE7       30.04R
LA CROSSE WI   CLEAR     56  53  90 SE5       30.02R
$$

  *****  SOME NATIONAL WEATHER *****

CITY           SKY/WX    TMP DP  RH WIND       PRES   REMARKS
LA GUARDIA NY  CLEAR     64  53  67 SW7       29.97F
RALEIGH NC     PTCLDY    68  60  75 E5        29.97S
ATLANTA GA     PTCLDY    71  56  58 N6        29.96R
NEW ORLEANS LA PTCLDY    76  71  85 W5        29.93S
OKLAHOMA CITY  CLOUDY    76  67  73 S5        29.90R
ALBUQUERQUE NM CLOUDY    66  59  78 SE3       30.13R
SALT LAKE CITY PTCLDY    81  39  22 E12       29.88S
LOS ANGELES CA PTCLDY    72  59  63 W13       29.75R
BOISE ID       PTCLDY    75  40  28 S5        29.70S
SEATTLE WA     CLOUDY    63  54  72 CALM      29.78S
$$

*** WEATHER ACROSS MANITOBA...SASKATCHEWAN AND ONTARIO ***
                ***ONTARIO***

CITY           SKY/WX    TMP DP  RH WIND       PRES   REMARKS
GERALDTON      PTCLDY    30  28  93 CALM      30.14R
THUNDER BAY    CLOUDY    43  34  70 E7        30.18R
SIOUX LOOKOUT  CLEAR     28 N/A N/A CALM      30.15S
TORONTO        CLEAR     54  46  76 W5        29.98R
BIG TROUT LK   CLOUDY    32  19  59 N6        30.16S
PICKLE LAKE    NOT AVBL
DRYDEN         PTCLDY    37  34  87 E3        30.14S
KENORA         PTCLDY    37  34  87 SE6       30.13R
$$
                *** MANITOBA***

CITY           SKY/WX    TMP DP  RH WIND       PRES   REMARKS
BRANDON        PTCLDY    37  36  93 E8        30.07S
DAUPHIN        CLOUDY    43  39  87 SE7       30.05F
ISLAND LAKE    PTCLDY    37  30  75 SE6       30.12F
PILOT MOUND      N/A     41  37  87 E7          N/A
THE PAS        CLEAR     39  36  87 SE8       29.97F
THOMPSON       PTCLDY    32  27  80 SE6       30.03F
WINNIPEG       CLEAR     39  36  87 E7        30.11S
LYNN LAKE      CLEAR     37  27  65 S7        29.89F
CHURCHILL      CLEAR     28  25  86 S8        30.06F WCI  20
GILLAM         CLEAR     28  25  86 SE6       30.10F WCI  22
$$
                ***SASKATCHEWAN***

CITY           SKY/WX    TMP DP  RH WIND       PRES   REMARKS
ESTEVAN        PTCLDY    48  45  87 E12       29.95F
KINDERSLEY     PTCLDY    57  48  72 E15       29.70F
LLOYDMINSTER   CLEAR     52  48  87 SE14      29.70F
PRINCE ALBERT  PTCLDY    46  43  87 E6        29.84F
REGINA         PTCLDY    50  46  87 SE17G25   29.89S
YORKTON        MOCLDY    45  43  93 SE10G22   29.97F



USA.gov is the U.S. government's official web portal to all federal, state and local government web resources and services.